Tracking 31011 objects as of 13-Jul-2025
HD Live streaming from Space Station
objects crossing your sky now

STARLINK-5707

Track STARLINK-5707 now!
10-day predictions
STARLINK-5707 is classified as:


NORAD ID: 56879
Int'l Code: 2023-083D
Perigee: 564.3 km
Apogee: 567.8 km
Inclination: 43.0 °
Period: 95.8 minutes
Semi major axis: 6937 km
RCS: Unknown
Launch date: June 12, 2023
Source: United States (US)
Launch site: AIR FORCE EASTERN TEST RANGE (AFETR)
Your satellite tracking list
Your tracking list is empty




NASA's NSSDC Master Catalog

Two Line Element Set (TLE):
1 56879U 23083D   25194.01812135 -.00013406  00000-0 -97750-3 0  9990
2 56879  43.0043 304.4289 0002497 135.7302 224.3740 15.02600074114816
Source of the keplerian elements: AFSPC